CAPE
825 1209 1270 1730 2426 2190 2286 2680 2686 2820 3201 3192 3158 2909 3000 3081 3056 2905 2802 2814 2928 2974 3074 2986 2870 2757 2669 2714 2820 2762 2689 2833 2859 2939 2761 2817 2828 2779 2711 2580 2408 2483 2418 2650 2529 2510 2626 2726 2548 2481 2479 2400 2352 2427 2392 2381 2430 2320 2252 2275 2445 2464 2386 2416 2662 2311 2640 2474 2310 2331 1998 1862 2152 2140 2058 1877 2410 2632 2462 2127 2428 2717 2328 2299 2010
1067 1137 1317 1566 2352 2058 2597 2671 2739 2877 3158 3096 2904 2893 2929 2957 2952 2747 2812 3035 3054 3050 3015 2923 2843 2795 2826 2739 2699 2707 2719 2840 2863 2834 2842 2754 2798 2703 2628 2630 2576 2665 2757 2650 2641 2325 2719 2652 2502 2461 2520 2533 2439 2274 2435 2351 2232 2174 2214 2238 2022 2489 2709 2116 1889 1870 2101 2215 2127 2228 2155 2100 1943 2006 1967 1779 2266 2412 2484 2534 2825 2380 2148 2047 1964
1190 1032 1260 1725 2270 2320 2531 2792 2706 2896 3192 2989 2830 3010 2901 2967 2733 2720 2963 2985 3017 3004 2946 2967 3011 2993 2885 2805 2798 2716 2808 2634 2814 2708 2796 2755 2537 2807 2892 2860 2728 2785 2781 2734 2643 2861 2832 2781 2647 2553 2457 2440 2341 2305 2299 2291 2295 2102 2015 2105 2114 2510 2313 2466 2301 2365 2406 2298 2149 2349 2183 2092 2048 2031 2123 2111 2306 2233 2189 2482 2500 2476 2148 1991 2074
1109 1078 1269 1821 2222 2425 2641 2792 2738 2854 3069 2796 2938 2811 2732 2870 2859 2991 2951 2958 2873 2895 2928 2979 2866 2768 2720 2718 2677 2712 2737 2726 2759 2638 2593 2633 2774 2916 2942 2975 2889 2871 2830 2815 2736 2885 2784 2687 2482 2386 2350 2256 2289 2307 2390 2344 2247 2178 2152 2090 2172 2314 2459 2407 2482 2607 2634 2226 2342 2489 2588 1932 1892 1984 1677 1993 2184 2296 2162 2354 2675 2328 2205 2069 1950
1108 1008 1106 1670 2018 2320 2627 2770 2818 2918 2887 2885 2821 2774 2778 2779 2965 2929 2872 2892 2919 2826 2832 2850 2686 2800 2884 2796 2901 2826 2796 2725 2588 2542 2436 2464 2522 2611 2648 2672 2724 2642 2653 2603 2638 2663 2758 2656 2510 2377 2329 2383 2417 2448 2547 2342 2197 2164 2172 2025 2046 2251 2304 2353 2464 2568 2366 2479 2345 2388 1902 1971 2083 2173 2054 1567 1616 2116 2371 2033 2342 2178 2455 1912 1962
1023 1005 1368 1410 1866 2412 2786 2770 2680 2720 2763 2741 2767 2779 2769 2839 2912 2842 2850 2871 2790 2817 2866 2816 2794 2940 2856 2885 2828 2719 2599 2695 2640 2461 2353 2358 2422 2487 2671 2777 2716 2527 2561 2654 2588 2680 2615 2675 2554 2529 2512 2466 2434 2567 2633 2410 2161 2168 2122 2064 1985 2030 2008 2129 2186 2148 2025 2224 2436 1828 1950 2064 2177 2239 2252 2053 1874 1886 2049 2240 2160 1979 1921 1963 2036
1122 1252 1484 1505 1941 2191 2713 2780 2544 2609 2683 2885 3035 2754 2778 2838 2886 2906 2877 2762 2672 2791 2889 2860 2909 2778 2758 2618 2621 2738 2593 2457 2648 2592 2558 2424 2398 2519 2361 2347 2430 2472 2528 2425 2378 2541 2549 2496 2553 2456 2398 2320 2487 2582 2675 2663 2210 2218 2223 2215 2208 2346 2487 2448 2377 2368 2312 2150 1730 1861 2002 2061 2169 2159 2286 2286 2056 1970 1803 2011 2214 2174 2285 2320 1880
1243 1396 1615 1863 1936 2442 2751 2902 2608 2623 2806 2936 2758 2784 3005 2977 2899 2917 2803 2753 2805 2844 2891 2704 2722 2672 2669 2724 2727 2686 2636 2688 2656 2636 2533 2563 2679 2629 2489 2203 2490 2513 2661 2555 2427 2564 2527 2602 2568 2574 2448 2444 2614 2668 2660 2493 2343 2179 2216 2320 2531 2512 2284 2215 2283 2407 2312 1743 1725 1851 1909 1962 1982 1969 2090 2227 2165 1983 1924 2077 2111 1780 1756 1927 2179
1307 1593 1963 1969 2204 2588 2920 2940 2660 2751 3057 2905 2938 2937 2901 2856 2946 2870 2749 2802 2794 2742 2620 2512 2601 2614 2496 2440 2390 2447 2318 2239 2304 2306 2275 2284 2418 2544 2444 2428 2408 2646 2641 2605 2645 2586 2597 2551 2504 2503 2388 2516 2541 2593 2587 2628 2557 2222 2100 2315 2508 2304 2178 2115 1950 2457 1857 1775 1740 1840 1859 1801 1904 1882 2184 2185 2207 2283 2270 2179 2134 2098 2112 2168 2355
1468 1794 1947 1922 2186 2733 3106 2951 2943 3113 3124 2944 2890 2888 2953 2987 2941 2768 2747 2780 2676 2670 2538 2510 2368 2340 2353 2237 2207 2307 2340 2404 2416 2404 2400 2356 2247 2400 2547 2544 2501 2326 2642 2697 2642 2646 2676 2699 2578 2392 2474 2564 2614 2564 2521 2543 2525 2336 2179 2251 2500 2390 2286 2181 2353 2004 1319 1489 1829 1777 2338 2685 1868 1953 2236 2232 2170 2169 2141 2257 2180 2139 1893 1944 2626
1593 1805 1940 1922 2166 2988 2965 2646 3042 3195 3159 2989 2820 2972 3028 2956 2848 2771 2818 2746 2663 2592 2474 2331 2212 2300 2346 2395 2407 2443 2473 2435 2415 2374 2322 2350 2344 2312 2398 2154 2223 2468 2255 2676 2723 2690 2718 2628 2528 2530 2582 2591 2645 2707 2609 2578 2542 2238 2213 2340 2420 2306 2292 2328 2140 1558 1474 1624 1788 1802 1952 2561 2122 2166 2211 2214 2261 2233 2241 2242 2154 2055 1907 2463 2496
1558 1944 1980 2136 2679 3070 2985 2827 3131 3228 2905 3074 3211 3060 3048 2914 2837 2814 2829 2780 2634 2498 2498 2461 2466 2442 2376 2406 2487 2483 2399 2378 2273 2259 2320 2488 2484 2676 2674 2562 2367 2310 2094 2149 2252 2466 2396 2390 2455 2394 2636 2726 2670 2507 2694 2691 2702 2511 2424 2421 2366 2159 2476 2188 1563 1574 1645 1860 2212 2074 2154 2074 2043 2314 2480 2200 1895 1988 2466 2186 1864 1922 2187 2357 2267
1873 2018 2159 2517 2714 3157 3020 3127 3230 2996 2953 3110 3229 3256 2978 2887 2780 2820 2934 2798 2697 2723 2488 2321 2449 2551 2522 2434 2335 2379 2378 2281 2020 2233 2279 2330 2612 2497 2673 2426 2453 2493 2497 2384 2354 2399 2363 2327 2332 2381 2474 2539 2599 2678 2600 2614 2602 2342 2251 2216 2295 2032 2467 2092 1336 1403 1554 1653 1806 1945 2092 2177 2354 2524 2488 2490 2201 1926 2246 2373 2248 2063 2130 2487 2499
2046 2154 2195 2389 2732 3108 2941 3010 3204 2979 2851 3021 3249 3206 2989 2863 2863 2923 2811 2803 2764 2685 2648 2661 2664 2639 2548 2593 2533 2528 2337 2303 2221 2154 2268 2278 2479 2465 2478 2591 2615 2611 2607 2604 2534 2472 2411 2481 2429 2440 2481 2557 2636 2583 2513 2447 2592 2277 2219 2331 2221 2352 2125 2189 1757 1607 1819 1648 2126 1944 2128 2392 2450 2689 2533 2485 2349 2231 2077 2047 2445 2637 2836 2676 2464
2074 2088 2156 2383 2739 2834 2944 2955 3114 3010 3020 3090 3303 3129 3014 2909 2997 2896 2798 2797 2873 2907 2776 2670 2822 2826 2779 2532 2544 2492 2395 2378 2338 2402 2377 2433 2476 2540 2570 2699 2788 2715 2666 2659 2604 2578 2538 2432 2443 2441 2501 2561 2694 2805 2499 2587 2581 2546 2339 2706 2260 2410 2217 2167 1887 1503 1592 2104 2131 1950 2195 2386 2570 2560 2552 2373 2306 2195 2020 2204 2259 2583 2596 2335 2268
1986 2115 2235 2436 2602 2769 2875 3066 2958 3037 2929 3068 3272 3243 3116 3075 3228 3140 3167 3166 3151 3079 2749 2633 2736 2692 2669 2695 2533 2542 2527 2414 2380 2441 2456 2487 2494 2575 2722 2758 2735 2632 2575 2574 2672 2669 2596 2542 2533 2600 2694 2723 2662 2848 2690 2517 2480 2608 2715 2748 2691 2394 2547 2680 2033 1687 1951 2032 2032 2096 2280 2612 2655 2653 2513 2297 2240 2156 2049 1967 2306 2190 2322 2326 2344
1901 2146 2246 2482 2528 2430 2773 2840 2854 2931 2928 2986 3136 3184 3300 3298 3335 3446 3385 3459 3377 2927 2793 2712 2553 2431 2446 2419 2557 2596 2527 2484 2464 2443 2486 2492 2500 2597 2807 2802 2774 2636 2621 2665 2772 2840 2801 2680 2749 2800 2900 2924 2972 2876 2871 2748 2692 2523 2441 2862 2449 1797 2527 2704 1961 1688 1704 2144 2417 2148 2373 2493 2632 2543 2469 2202 2134 2129 2155 2104 2099 2114 2056 1948 2158
1818 2072 2197 2374 2263 2311 2551 2603 2738 2585 2501 2747 2884 3085 3217 3210 3346 3387 3436 3464 3188 2944 2905 2804 2622 2460 2448 2296 2402 2644 2693 2730 2711 2948 2979 2844 2713 2700 2730 2827 2830 2842 2807 2761 2741 2787 2778 2757 2755 2860 2876 2965 2980 3047 3012 2890 2795 2491 2390 2602 2689 2055 2364 2305 1637 1498 1819 2573 2109 2438 2332 2689 2611 2539 2429 2206 2148 2100 2080 2047 2046 2055 2066 2039 1919
1747 1852 2128 2210 2147 2289 2431 2579 2633 2587 2536 2444 2723 3012 3159 3300 3288 3360 3463 3519 3268 3182 2874 2639 2666 2545 2258 2257 2224 2500 2773 2776 2885 3000 2987 2897 2848 2732 2687 2751 2750 2768 2852 2844 2799 2839 2877 2870 2793 2796 2876 2839 2781 2865 2887 2903 2663 2078 2409 2522 2479 2310 2201 2672 1774 1530 2240 2020 1931 2079 2330 2656 2510 2519 2397 2215 2166 2175 2046 2121 2166 2152 2083 2056 2034
1628 1869 2084 2086 2072 2179 2404 2477 2467 2579 2478 2584 2727 2814 3023 3220 3342 3435 3514 3480 3329 3088 2762 2579 2544 2400 2363 2259 2293 2403 2491 2807 2926 3017 3124 2966 2740 2650 2744 2688 2782 2746 2680 2722 2845 2942 2917 2897 2926 2869 2950 3009 2923 2793 2940 3070 2886 2434 2565 2683 2561 2362 2490 2038 1808 1754 1816 2154 2167 2258 2594 2606 2492 2484 2328 2206 2201 2130 2133 2067 2093 2146 2152 2046 1917
1709 1872 1970 1953 1954 2079 2264 2181 2301 2453 2438 2574 2688 2920 3227 3251 3238 3414 3510 3454 3279 2982 2684 2631 2505 2378 2445 2342 2228 2132 2320 2595 2730 2784 3141 3231 2717 2754 2821 2764 2630 2729 2798 2668 2744 2930 2921 2899 2831 2784 2831 2752 2865 3017 3189 2972 3002 2794 2273 2556 2305 2720 2139 2071 1937 1932 1914 2618 2512 2241 2709 2729 2533 2553 2331 2214 2264 2186 2163 2158 2133 2121 1963 1814 1802
1544 1784 1788 1709 1798 1948 1968 2020 2217 2178 2177 2453 2779 3042 3176 3087 3118 3244 3366 3279 3114 2897 2857 2727 2698 2463 2401 2536 2316 2820 2679 2004 2678 2950 3403 3174 2953 2762 2756 2858 2676 2535 2775 2781 2771 2856 2788 2850 2602 3007 2983 3150 3006 2808 3316 3733 3439 3146 3004 2784 2714 2572 1734 1989 1968 1781 2096 2066 2330 2463 2792 2658 2526 2483 2294 2236 2260 2174 2150 2194 2050 1923 1848 1781 1747
1498 1593 1601 1612 1711 1798 1773 1908 2022 1915 2163 2478 2755 2930 2963 2977 3001 3032 3145 3188 3172 3185 2626 2906 2371 2374 2396 2307 3139 3065 3001 3241 2767 3284 3191 3170 3203 2929 2812 2694 2666 2605 2516 2570 2813 2758 2617 2432 2438 2808 2799 2781 3119 2188 2445 2758 3002 3466 3153 3065 3033 2495 1828 1783 1813 1848 1918 2203 1974 2709 2645 2648 2497 2395 2408 2240 2127 2146 2153 2109 1987 1870 1846 1787 1726
1350 1428 1461 1446 1595 1746 1726 1746 1717 1672 2063 2320 2557 2868 2811 2862 2882 2869 2946 2923 2870 2768 2447 2342 2391 2281 2648 2593 2979 2866 2876 2980 2802 2704 2700 3129 3029 2929 2863 2644 2670 2641 2651 2716 2616 2566 2609 2551 2339 2603 3284 3180 2400 1817 1288 1278 2028 2502 3120 2838 2987 2067 2036 1861 1610 1784 1975 2586 2245 2752 2728 2654 2565 2358 2370 2246 2167 2131 2092 2058 1962 1916 1888 1848 1796
1296 1287 1359 1424 1587 1648 1664 1533 1342 1437 1577 1818 2331 2606 2564 2643 2652 2636 2652 2673 2681 2556 2181 2422 2512 2210 2463 3012 2784 2767 2392 2357 3128 2639 2256 2557 2939 2864 2963 2744 2649 2475 2793 2427 2636 2563 2617 2440 2584 2880 2117 2745 2034 1468 1286 1345 1470 2079 2282 2666 2892 2599 2118 2058 1584 1820 2045 2126 2379 2776 2720 2644 2559 2206 2151 2093 2192 2188 2152 2042 2008 1936 1876 1839 1860
1139 1190 1225 1368 1525 1567 1582 1382 1311 1295 1272 1516 1966 2065 2234 2299 2292 2308 2408 2508 2434 2334 2189 2686 2796 2444 2434 2525 2229 2070 2362 2380 2693 2597 2944 2696 2760 2863 2825 2827 2782 2892 3184 2613 2418 2280 2309 2256 2431 2197 2024 2383 1781 1908 1535 1882 1261 1633 2033 2454 2402 2786 1948 1910 1864 1981 1848 1918 2703 2849 2752 2626 2513 2204 1951 2044 2131 2216 2263 2130 2113 1989 1895 1850 1778
849 1031 1164 1340 1389 1415 1398 1265 1313 1238 1220 1432 1480 1646 1990 1977 2028 2045 1771 2251 2064 2021 2232 2388 2677 2975 2620 2544 1972 1607 1886 2316 2308 2605 2918 2769 2666 2353 2789 2687 2604 2688 3191 2176 2309 2385 2244 1972 1914 3018 2242 1635 1444 1718 1784 1609 1706 2015 1636 1603 2053 2421 1761 1802 1921 1835 1706 2059 2792 2815 2732 2603 2348 2068 2079 2131 2258 2328 2297 2277 2120 2045 2009 1951 1780
747 928 1058 1254 1310 1230 1274 1164 1208 1210 1217 1409 1191 1275 1815 1811 1790 2012 1660 1994 1611 1606 2115 1952 2204 3182 2777 2338 2193 1563 1707 1959 2375 2474 2670 2641 2564 2668 2319 1863 2058 2465 2270 2084 2362 2213 2067 2106 2042 2232 2204 1897 1469 1633 1554 1824 1731 1820 909 454 1129 1335 1482 1622 1816 1796 1690 2067 2558 2819 2700 2564 2326 2188 2239 2203 2312 2302 2255 2286 2336 2185 2300 2132 1931
802 838 911 1076 1128 1118 1212 1017 1111 1120 1118 1370 1095 1010 1460 1463 1423 1493 1461 1908 1509 1363 1915 1965 2165 2932 2532 2181 2008 1435 1731 1473 2095 2501 2327 2546 2546 2347 2399 2372 2410 2382 2048 2098 2042 2334 2066 1580 1805 2490 2102 2634 2147 1796 2095 1406 1364 1306 1259 196 635 724 1262 1515 1678 1743 1659 1982 2497 2652 2731 2555 2432 2276 2353 2129 2236 2274 2282 2237 2145 2323 2315 2279 2268
1107 1104 997 988 962 986 1110 948 1044 1005 939 1185 1145 875 1013 1079 1137 1057 1344 2275 1435 1809 2024 2045 2122 2399 2353 2270 1961 1144 1213 1096 1968 2395 2324 2392 2074 2893 2571 2408 2290 2273 1899 1624 1674 1771 1981 1797 2014 2329 2349 1547 1474 1619 2045 1146 1420 1197 1237 313 224 604 1069 1274 1642 1696 1778 2059 2422 2776 2790 2665 2486 2372 2258 2239 2344 2433 2415 2324 2231 2256 2326 2257 2351
1337 1202 1248 1122 792 1041 994 836 955 1143 1072 988 1126 918 625 916 1056 989 1214 1577 1618 2050 2041 1955 2358 2332 2442 2715 1891 1285 1010 784 1464 2501 2395 2001 2190 2520 2248 2688 2294 2192 1840 1670 1851 1330 1385 1531 1973 2573 2565 1484 1880 1862 1474 694 1200 1745 1577 838 281 186 750 1198 1458 1749 1841 2116 2457 2711 2794 2691 2496 2400 2301 2199 2128 1957 2247 2290 2348 2295 2342 2194 2262
1400 1332 1396 1334 1288 970 907 909 1008 1223 1372 997 1509 1322 849 1024 1298 1185 1184 1383 1738 1748 1838 1757 2190 2359 2411 2691 2292 1696 1885 1777 2211 2441 2441 2232 2213 1957 2474 2336 2434 2227 2205 1839 2191 2436 2311 1973 2645 2860 2111 1611 1700 1536 2352 1578 1208 1255 1112 370 215 57 693 1157 1493 1556 1971 2289 2560 2698 2697 2706 2680 2462 2383 2195 2122 2040 2016 2124 2094 2230 2164 2132 2177
1451 1352 1546 1575 1562 1217 1184 1274 1267 1600 1464 1262 1553 1583 1396 1325 1400 1296 1302 1730 1783 1216 1360 1628 1856 2131 2558 2311 2830 2305 2023 2006 2386 2172 3074 2209 2052 2243 2257 2522 2398 2138 1817 1615 1451 1376 1525 2162 3402 2387 1920 1467 837 1014 1409 1803 1129 908 1047 152 122 167 696 1170 1298 1614 1956 2220 2530 2615 2609 2680 2507 2516 2248 2111 2055 2050 2048 2091 2091 2006 2060 1993 2070
1437 1423 1490 1617 1637 1351 1693 1595 1589 1873 1602 1387 1634 1527 1614 1407 1492 1499 1781 1629 1534 1444 1425 1620 2271 2375 2442 2872 2712 2670 2400 2855 2878 2387 2518 2355 2581 2305 2360 2742 2383 2044 1895 1637 1553 1910 2083 1990 2236 2084 2565 1564 923 1067 2073 1193 1141 968 670 416 346 551 748 1073 1309 1498 1735 2058 2336 2498 2454 2513 2421 2275 2198 2145 1962 1939 2155 2153 2108 1983 2067 1976 2016
1430 1622 1609 1622 1560 1653 1631 1543 1755 1886 1854 1455 1566 1352 1489 1420 1532 1614 1752 1704 1272 1462 1766 1675 1940 2242 2532 2888 2591 2814 2733 2935 3005 2287 2262 2580 2660 2739 3081 3069 2766 2764 2496 2848 1960 2616 2692 2526 2937 2792 2555 2192 1180 1126 1512 1161 407 262 305 1052 81 502 747 1000 1222 1462 1638 1844 2034 2288 2354 2357 2323 2106 2184 2045 2044 2315 2196 2086 2146 2004 2093 2103 1991
1404 1765 1667 1586 1632 1584 1740 1525 1558 1714 1732 1510 1500 1559 1281 1482 1527 2031 1823 1790 1196 1129 1841 1740 1804 2292 2707 2702 2567 2872 2538 3017 2800 2676 2104 2168 2187 2720 2678 3048 3462 3319 3673 3625 3011 2563 2535 2639 2658 1549 1718 2149 2244 1242 2904 507 245 384 380 374 298 316 560 803 960 1155 1297 1616 2023 2178 2188 2089 2052 1954 2337 1864 1784 2071 2141 2074 2144 2177 2168 2143 2050
1474 1757 1697 1470 1503 1536 1543 1686 1788 1926 1678 1439 1360 1614 1248 1490 1555 1911 1940 1768 1691 1252 1395 1775 1873 2317 2586 2661 2533 2950 2374 2982 2910 2936 2624 2310 2590 2815 2721 2832 3828 3048 3141 3294 3159 2896 2325 2525 2679 3336 2075 2282 2482 1667 1390 285 236 433 96 45 109 31 397 778 826 908 1044 1414 1776 1951 1887 1892 2080 2540 2075 1770 1740 1910 2257 2294 1993 1843 2123 2145 2053
1614 1746 1622 1621 1432 1371 1335 1652 1767 1876 1639 1690 1350 1780 1382 1736 1668 1740 2096 1662 1853 1361 1315 1444 1892 2111 2435 2575 2693 2757 2700 2782 2932 2814 2637 2392 2548 2442 2992 3294 3166 3184 3135 2993 2848 3220 2392 2759 2800 3088 3864 3150 2501 1505 578 389 228 189 98 16 2 16 88 227 491 1560 784 1050 1334 1548 1649 1847 2320 2257 1884 1749 1769 1782 1904 2119 2091 1880 1887 2048 2053
1430 1450 1483 1663 1519 1387 1346 1778 1765 1810 1659 1755 1218 1789 1820 1853 1608 1702 1883 1660 1733 1406 1222 1100 1656 1965 2272 2398 2780 2543 2835 2716 3017 2770 2467 2784 2057 2387 2824 3474 3245 3411 3320 2743 2994 2849 2477 1812 2111 3046 2842 2882 2699 1232 94 322 45 56 0 21 0 2 112 429 593 265 355 666 1064 1366 1227 1486 1778 1824 1912 1907 1842 1748 1757 1879 1862 1865 1736 2028 2084
1443 1479 1330 1488 1495 1514 1428 1510 1638 1788 1649 1852 1584 1738 1897 1794 1612 1588 1899 1551 1596 1695 1278 1177 1098 1550 2047 2359 2644 2521 2655 2634 2844 2877 2272 2705 2019 2287 2710 3118 2657 2676 2864 2866 2767 2657 2461 1885 2173 2421 2269 2492 2786 1530 611 34 26 346 671 4 35 42 82 493 152 4 240 522 1324 1103 1055 1194 1422 1478 1796 1949 1808 1710 1738 1750 1985 1743 1840 2091 2124
1444 1535 1389 1469 1304 1328 1192 1620 1752 1774 1658 1972 1712 1690 1772 1663 1531 1435 1891 1547 1518 1654 1948 1139 969 947 2127 2339 2514 2586 2595 2660 2812 2801 2574 3247 2388 2094 2246 2712 2340 2438 2423 2892 2556 2520 2664 2474 3037 2952 2399 2277 1917 1039 13 0 0 0 0 0 0 13 671 72 0 5 83 255 758 769 833 1075 1189 1237 1462 1698 1696 1716 1762 1721 1761 1707 1761 1913 2048
1400 1452 1490 1379 1311 1264 1193 1626 1772 1782 1659 1913 1681 1632 1720 1643 1438 1519 1532 1837 1748 1711 1742 1318 894 1386 2370 2433 2549 2644 2686 2705 2752 2743 2701 2827 2744 2088 2316 2952 2033 2086 2421 2942 2020 2749 2738 2440 2665 2309 2772 2582 1677 606 0 0 0 0 0 0 2 15 1032 51 1 0 4 5 49 208 676 1000 1211 1246 1342 1514 1546 1686 1690 1679 1696 1687 1778 1736 1860
1323 1346 1573 1577 1449 1340 1200 1631 1676 1788 1630 1824 1736 1592 1766 1736 1653 1665 1544 1673 1876 1715 1555 1585 1575 1565 2439 2522 2585 2623 2727 2700 2805 3009 2585 2849 2663 2590 2942 3104 2474 2832 2699 2464 2247 2304 2679 2396 2391 2615 2711 2622 2476 239 85 122 0 4 111 0 0 0 9 8 22 1 2 2 2 42 487 798 984 1164 1324 1378 1439 1558 1656 1609 1374 1456 1639 1533 1839
1199 1410 1553 1574 1604 1418 1272 1786 1622 1728 1689 1903 1854 1666 1712 1813 1830 1777 1546 1626 1763 1714 1515 1489 1528 1924 2477 2496 2567 2650 2741 2680 2932 2828 2919 2840 2481 3203 3535 3389 2993 3312 3068 2732 2827 2808 2969 2877 2539 2561 1942 1612 1026 410 383 6 199 11 0 0 0 0 0 1 7 6 0 0 0 0 0 95 631 861 1237 1400 1362 1402 1475 1484 1461 1500 1522 1497 1671
1177 1399 1530 1509 1492 1511 1375 1848 1663 1733 1692 1899 1791 1647 1810 1791 1833 1744 1583 1675 1632 1560 1340 1395 1202 1863 2394 2383 2548 2665 2606 2774 2756 2822 2808 2760 2805 3269 3442 3553 3298 3189 3404 3099 2742 2884 3253 2881 2677 2326 1595 1246 1003 1 740 116 415 191 200 288 0 0 0 1 0 13 170 0 0 0 3 0 4 61 869 1068 1038 1144 1313 1474 1533 1441 1432 1429 1569
1125 1292 1428 1425 1384 1454 1276 1800 1682 1677 1666 1728 1672 1576 1546 1700 1683 1751 1558 1703 1500 1465 1319 1303 1134 1478 2201 2314 2560 2650 2528 2646 2672 2699 2737 2736 3119 3331 3161 3477 3295 3365 3298 2969 2680 2991 3190 2973 2818 2372 1736 1589 738 0 14 1580 793 1023 318 406 32 36 0 0 0 0 551 7 0 0 0 0 0 0 0 2 73 453 742 979 1331 1401 1361 1388 1442
1058 1212 1229 1273 1254 1428 1251 1566 1692 1588 1633 1615 1554 1485 1493 1612 1571 1682 1422 1380 1542 1402 1298 1371 1150 1155 1790 2155 2469 2524 2449 2511 2565 2618 2610 2795 3285 3106 3288 3470 3389 3326 3165 2831 2824 3081 3013 2712 2746 2243 1909 2038 1458 0 0 48 100 374 569 504 549 1144 630 0 0 1 0 0 42 0 0 0 0 0 0 1 38 52 90 217 468 856 1181 1143 1065
915 1116 1094 1079 1014 1506 1400 1404 1670 1547 1460 1484 1372 1428 1485 1534 1495 1645 1421 1210 1646 1274 1268 1463 1264 1285 992 1922 2370 2320 2406 2324 2552 2598 2589 2733 3549 3070 3420 3535 3734 3565 3347 3032 2903 3098 2756 2597 2627 2174 2007 2289 1444 340 0 16 0 3 57 100 602 648 60 296 0 0 29 0 0 1 0 0 0 0 0 2 9 2 5 100 0 47 256 161 0
1100 1036 1093 1121 971 1513 1506 1326 1710 1507 1482 1461 1408 1355 1554 1471 1479 1540 1541 1223 1452 1533 1484 1438 1515 1606 1162 1128 2017 2172 2433 2262 2422 2615 2583 2682 3519 3696 3687 3718 3532 3739 3402 3010 2760 2921 2863 2568 2606 2474 2152 1817 1688 1082 31 94 2 0 3 42 68 72 9 150 243 6 4 0 0 0 0 0 0 0 0 0 0 1 45 1 40 84 142 5 18
1248 1250 918 1216 1107 1489 1600 1355 1635 1595 1580 1500 1458 1358 1492 1623 1483 1398 1524 1473 1526 1882 1679 1469 1566 2007 1092 1068 1985 2131 2404 2444 2386 2512 2575 2602 3449 3688 3815 3804 3470 3537 3399 3102 3142 2917 3235 2945 2609 2405 2492 1541 2080 2166 855 50 5 34 1 1 28 111 0 0 0 26 0 2 0 0 0 0 0 0 0 0 0 10 0 21 292 48 36 0 6
1387 1414 1048 1383 1368 1465 1735 1469 1552 1732 1768 1537 1448 1380 1452 1551 1556 1363 1486 1603 1547 1837 1708 1633 1451 1994 1417 1060 2086 2177 2355 2513 2426 2446 2510 2538 3442 3402 3606 3783 3540 3511 3284 3184 3328 3104 3188 2928 2818 2814 2498 1850 2024 1739 1816 546 107 864 148 0 14 70 0 0 0 3 43 0 0 6 0 0 0 0 0 0 0 0 0 78 64 1 0 13 23
Wind_Speed
15 12 13 8 4 3 3 4 5 6 6 7 8 9 10 10 10 9 9 10 11 11 12 13 13 13 13 12 11 10 10 10 9 9 9 9 9 9 9 8 7 6 5 5 5 5 6 7 7 7 7 7 8 9 9 9 10 10 11 12 12 14 15 13 12 15 13 13 13 12 12 11 12 11 11 13 14 15 17 18 19 17 15 17 21
11 10 11 11 7 4 3 5 5 6 7 7 8 9 9 9 9 8 9 10 10 11 12 13 13 13 12 12 11 10 10 10 9 9 9 9 9 9 8 7 6 5 5 5 6 7 8 8 8 7 7 8 9 9 9 10 10 11 12 12 13 13 13 13 15 14 14 12 11 11 12 12 11 11 10 12 15 13 16 16 18 13 14 18 17
7 8 9 10 6 4 5 5 6 6 7 7 8 8 8 8 8 9 10 10 11 12 13 12 12 11 11 11 10 10 10 9 9 9 9 9 9 8 7 7 5 4 4 5 6 7 7 8 8 7 6 7 8 8 9 9 10 11 12 12 13 14 12 11 11 11 10 12 11 11 11 11 10 11 11 12 12 13 15 13 14 15 13 16 13
7 7 8 7 5 5 6 6 7 7 7 8 8 8 8 8 9 9 10 10 12 12 12 11 11 10 10 10 10 9 9 8 8 8 8 8 8 7 7 6 4 3 3 3 4 4 5 6 6 5 6 7 8 8 8 9 9 10 10 11 12 13 12 9 9 9 8 10 10 7 1 3 5 10 11 11 12 11 11 10 11 13 15 15 12
7 7 7 7 8 8 8 7 8 8 9 9 8 8 8 9 9 10 11 11 12 12 11 11 10 10 9 9 9 8 8 7 7 8 8 7 7 6 6 5 4 3 4 3 4 4 4 4 4 4 5 6 7 7 8 8 9 9 9 9 10 11 10 9 8 8 8 9 9 4 1 2 4 8 10 11 11 10 9 9 11 11 10 14 8
7 6 6 7 8 7 7 8 9 10 10 10 10 9 9 9 9 10 11 11 11 11 11 10 10 9 9 8 8 7 7 7 6 6 7 6 6 5 5 4 4 4 4 4 4 5 5 5 5 4 5 6 6 7 7 7 8 8 7 7 8 9 8 8 8 8 8 8 5 2 1 2 3 2 9 9 8 8 9 9 6 8 8 12 10
6 6 6 6 8 7 8 9 11 11 11 10 10 9 10 9 9 10 10 11 10 10 10 10 9 9 9 8 7 6 6 5 5 5 5 4 4 4 4 4 3 4 4 4 4 5 5 5 6 5 5 5 5 5 5 6 6 6 6 7 7 7 7 7 6 8 7 1 2 3 2 2 3 2 8 7 6 6 6 6 4 5 6 8 9
5 6 6 6 6 7 8 9 11 12 12 11 10 10 9 9 9 9 9 9 9 10 9 9 8 8 8 7 6 6 5 5 5 5 4 4 4 4 4 4 4 4 4 4 4 5 6 6 6 6 5 5 5 5 5 7 7 6 6 7 6 6 5 6 7 7 6 2 3 3 3 3 3 3 5 5 4 3 3 3 4 5 6 6 7
6 5 5 5 5 8 8 9 11 12 12 11 10 10 9 8 8 8 8 8 8 8 8 8 7 7 7 6 6 5 4 4 5 5 4 4 4 3 3 3 4 4 4 4 4 5 5 6 6 6 6 6 6 6 7 8 8 8 7 7 5 6 6 6 6 4 1 4 4 3 3 3 4 4 3 3 3 1 2 1 2 5 5 6 7
5 5 4 4 5 9 9 10 11 12 12 11 11 10 8 8 7 7 7 7 7 7 7 7 6 6 5 5 5 4 3 3 4 3 3 3 3 2 1 2 3 3 3 3 4 4 5 4 5 5 5 5 5 5 6 8 9 8 7 6 5 4 5 7 6 2 3 5 5 5 4 1 5 5 3 2 1 0 1 2 2 3 3 6 6
6 4 3 3 5 7 10 12 12 12 12 11 11 9 8 7 6 6 6 6 5 6 6 5 5 5 4 5 5 4 3 3 3 3 3 2 2 2 3 3 3 4 4 5 5 4 3 5 6 5 3 4 5 7 7 8 8 7 5 4 5 5 5 6 4 4 5 6 6 5 1 3 4 5 2 2 1 1 2 2 4 3 5 6 7
5 3 3 3 7 8 11 12 12 12 11 11 10 9 7 6 6 6 5 5 4 4 4 4 3 4 4 4 4 3 3 3 3 3 2 2 2 2 2 3 3 4 3 4 4 5 6 7 7 6 6 6 7 8 9 8 8 6 4 3 3 4 4 6 2 5 7 7 6 4 4 4 5 1 3 2 2 3 2 5 5 5 5 6 7
5 4 3 3 4 9 11 11 11 11 11 11 10 8 7 6 6 5 5 4 3 3 2 2 3 4 4 4 3 3 3 3 2 2 2 2 3 3 3 3 4 5 5 6 6 6 6 7 8 9 9 9 9 10 11 10 9 8 7 5 5 5 6 5 5 5 5 5 5 5 5 5 4 2 3 4 4 4 4 5 5 4 4 6 8
4 3 4 3 4 10 12 12 11 11 11 10 10 8 7 7 6 5 4 3 2 2 1 0 2 3 4 4 2 2 2 1 0 0 1 1 2 2 3 4 6 6 7 7 7 7 7 8 9 10 11 11 12 12 12 12 11 10 8 5 4 6 6 4 5 7 6 6 5 4 4 4 3 2 4 4 4 6 5 6 7 6 5 6 8
4 5 5 3 4 5 12 12 11 11 10 10 9 8 8 7 6 5 4 3 3 2 2 2 1 1 2 2 2 2 1 1 1 2 2 3 3 4 5 5 6 7 7 7 8 8 8 9 10 11 12 12 13 13 13 13 12 11 10 6 4 5 3 4 5 6 7 8 8 6 4 5 3 4 5 5 6 7 9 8 6 6 7 8 9
8 7 5 3 3 4 4 10 12 11 11 10 9 8 8 7 6 5 4 3 3 4 4 4 3 2 2 3 4 3 3 2 3 4 5 6 6 6 6 6 7 7 8 8 9 9 10 10 11 11 12 13 13 13 13 13 13 13 11 10 8 7 5 4 5 6 7 7 8 8 8 7 5 4 5 6 7 8 9 9 7 6 8 9 9
8 6 5 4 5 5 4 5 8 13 11 10 9 9 8 8 7 5 4 4 5 5 5 5 5 4 4 4 5 4 4 5 6 8 8 9 9 8 7 7 7 8 9 9 10 11 11 12 12 13 12 13 13 13 13 14 13 13 12 12 10 9 7 5 5 5 4 6 7 6 6 6 4 4 4 5 6 7 8 8 8 7 8 9 10
9 7 6 5 5 5 4 4 6 5 5 7 9 9 8 8 7 6 5 5 6 6 7 6 5 5 5 5 6 7 7 9 10 11 10 10 10 9 8 8 9 10 10 11 11 12 12 13 13 13 13 13 13 13 14 13 12 10 13 14 14 12 9 6 7 6 6 5 4 3 3 3 5 4 5 6 5 6 7 8 8 8 10 10 10
8 8 6 6 5 5 5 4 4 5 5 5 5 6 9 9 8 6 6 6 7 7 7 7 6 7 7 7 8 9 11 11 11 11 11 10 9 9 9 9 10 11 11 12 12 13 14 14 13 14 14 13 12 13 14 14 11 10 13 14 13 11 12 11 10 9 8 6 4 3 3 5 6 6 7 7 6 6 6 6 7 8 10 11 11
7 7 6 5 6 6 5 5 5 5 5 5 5 5 8 10 8 7 7 8 8 8 8 8 9 9 9 10 10 14 14 14 11 13 10 10 9 11 10 11 11 11 11 12 13 13 14 14 15 15 14 14 14 14 15 16 14 14 16 17 13 14 14 12 11 11 10 9 6 4 5 6 7 7 7 8 7 7 7 6 6 6 7 9 10
4 6 4 4 6 5 6 5 6 6 5 5 6 6 8 9 9 9 9 9 10 10 9 10 11 12 13 13 13 16 17 17 14 16 11 13 10 11 11 11 12 12 12 13 14 14 13 14 15 15 14 14 14 14 15 16 17 15 14 16 15 14 15 12 12 13 12 10 8 8 8 7 8 7 7 8 8 8 8 7 7 7 7 8 9
4 3 4 4 4 5 6 6 6 7 5 5 6 8 9 9 12 13 13 13 13 12 14 17 15 17 14 16 18 17 16 16 16 13 14 13 13 11 11 12 12 12 13 14 14 14 13 13 13 14 14 14 14 14 15 18 20 18 16 16 14 13 14 14 12 12 11 10 10 10 10 10 10 9 8 8 8 8 8 8 8 8 8 8 9
4 3 2 5 3 4 6 7 7 7 5 5 6 9 9 11 13 14 15 13 15 16 17 17 17 17 17 16 17 15 13 14 15 13 13 12 12 11 11 12 13 13 13 14 14 14 14 12 14 13 13 11 12 14 14 16 18 21 18 16 13 13 14 16 12 11 11 11 11 12 11 11 11 10 9 7 7 7 7 7 7 8 8 9 9
5 3 3 2 4 5 7 7 8 6 4 6 7 8 11 12 14 15 15 16 16 16 17 16 16 16 15 15 14 14 13 13 14 10 11 11 12 11 12 13 13 13 12 12 14 13 13 12 13 13 12 12 11 14 15 15 18 18 16 16 15 14 15 16 12 11 11 11 12 14 12 11 11 11 10 8 7 7 7 7 7 8 8 9 10
3 2 2 3 5 5 6 7 7 5 5 6 6 8 11 12 14 15 14 15 15 15 16 14 14 14 13 12 13 13 11 13 14 12 9 10 11 12 11 12 13 13 13 12 12 13 10 10 12 13 13 12 12 16 16 17 19 17 16 17 16 16 16 16 14 13 12 12 13 16 15 13 13 12 12 12 11 10 9 9 9 9 9 10 11
5 3 3 4 5 5 5 6 6 5 6 6 7 8 10 12 14 14 13 13 13 14 14 12 12 12 12 11 12 12 10 12 13 11 9 10 12 12 12 11 11 11 11 9 10 9 10 11 13 12 11 11 13 15 17 18 19 18 16 17 18 16 16 16 14 13 12 13 14 18 17 17 16 15 14 14 14 14 13 12 11 11 11 11 12
4 3 2 2 4 4 4 5 5 5 6 6 7 9 11 12 12 12 12 12 11 12 11 11 12 12 11 11 10 10 10 12 12 11 9 10 12 11 10 10 11 10 10 9 9 8 9 10 10 11 12 12 13 14 17 18 18 19 17 18 16 16 16 16 13 14 15 15 15 19 19 19 19 18 17 16 16 16 16 15 15 14 13 13 13
4 5 3 2 3 4 3 5 5 5 7 6 7 9 11 11 12 11 11 11 10 11 10 10 11 11 11 10 10 10 10 12 11 11 10 10 12 10 11 11 11 10 10 9 9 9 9 10 10 13 12 12 13 13 15 16 18 17 15 12 14 16 18 15 14 15 15 15 16 19 20 20 20 20 20 19 18 18 18 17 17 16 15 14 14
6 6 4 2 3 2 3 4 4 5 7 6 7 9 11 11 11 11 10 11 10 10 10 9 9 11 11 9 10 10 10 12 12 11 10 11 11 11 11 12 11 11 10 10 9 9 9 9 10 11 13 13 13 12 10 13 13 13 14 12 11 16 14 13 14 15 14 15 14 17 21 21 20 21 20 20 19 18 18 18 18 18 17 17 15
5 6 4 1 2 1 4 4 4 5 7 6 8 9 11 12 10 11 10 9 9 8 7 9 9 10 11 10 11 10 11 13 13 11 10 12 12 11 12 12 12 11 9 10 11 11 11 12 11 12 11 11 8 11 9 11 13 12 12 14 10 13 13 13 14 13 13 14 14 15 21 20 20 20 20 20 19 19 18 18 18 18 19 18 17
6 5 3 2 1 1 3 2 3 5 7 8 7 9 11 12 9 10 9 8 6 6 6 8 8 10 11 10 10 11 11 13 12 11 10 12 12 13 14 14 13 11 11 12 13 11 11 12 14 12 10 9 9 11 12 12 13 13 13 14 13 9 13 12 11 12 12 12 12 13 16 20 19 19 18 18 18 19 18 18 18 18 19 19 19
5 4 3 2 1 2 3 1 2 5 7 8 8 8 11 12 9 8 9 8 5 5 6 7 8 9 10 10 10 12 12 12 11 10 11 12 14 15 14 12 13 13 13 14 13 13 13 14 15 12 8 7 9 11 12 14 14 15 12 12 9 nan 15 12 12 12 10 10 11 11 12 15 19 19 19 18 18 18 19 18 18 18 18 19 20
5 4 4 2 1 1 1 1 1 4 6 7 7 9 11 11 8 7 7 7 4 5 6 7 7 9 9 11 10 11 10 11 10 11 12 13 14 14 14 14 15 14 14 14 13 12 14 14 13 11 9 8 11 13 14 15 16 15 15 13 12 5 14 10 10 11 12 12 12 12 12 12 12 17 18 18 18 18 18 19 19 19 18 19 20
7 5 4 2 3 3 3 3 2 4 6 8 8 9 12 10 9 6 6 5 5 4 5 6 6 7 8 9 9 8 8 10 10 11 11 13 14 15 15 15 15 14 14 14 14 15 17 16 15 9 10 11 12 15 17 14 17 15 12 14 12 8 12 11 10 10 12 12 12 12 13 11 11 12 13 18 18 18 18 19 19 20 20 20 20
6 6 6 3 3 2 4 4 1 4 5 8 7 9 11 10 7 6 5 4 6 5 4 5 5 6 6 8 8 8 9 9 10 10 11 12 14 15 14 14 15 15 16 16 18 19 19 16 13 11 14 12 15 16 18 17 14 14 15 12 nan 9 11 12 14 12 11 10 11 12 12 12 11 11 11 12 16 17 18 20 20 20 21 21 21
7 6 7 5 3 4 4 3 1 2 5 8 7 9 9 9 6 6 5 4 5 7 5 5 4 5 6 7 8 9 9 10 10 10 10 11 13 14 15 15 15 14 13 14 17 16 17 16 16 16 16 16 17 20 19 17 17 17 16 15 12 9 13 14 15 14 13 12 12 12 12 11 12 11 12 11 11 13 19 20 21 21 21 21 21
8 7 7 5 5 4 4 3 1 2 3 8 7 10 9 8 5 5 4 4 5 7 7 4 4 5 5 6 8 8 9 9 9 9 9 11 12 13 13 14 13 12 14 14 15 17 19 21 21 21 21 21 19 20 20 20 20 18 nan nan 11 nan 14 15 15 14 14 14 15 14 13 13 14 15 12 11 10 10 14 18 19 19 21 21 20
8 7 6 5 6 6 5 6 3 4 4 8 6 9 8 8 5 4 4 4 6 7 7 4 3 5 5 6 7 7 8 8 8 9 9 10 11 11 12 11 11 12 14 15 17 18 19 20 21 21 22 20 22 21 20 23 19 18 nan nan nan nan nan 13 14 12 13 14 14 13 13 13 13 13 12 12 11 11 12 16 20 20 20 20 20
10 8 7 6 7 8 7 8 5 4 5 9 7 9 7 8 5 5 2 4 6 6 7 5 4 4 5 6 6 7 8 8 8 8 9 9 9 10 11 11 11 12 14 16 17 17 18 19 19 20 20 19 22 21 nan 17 nan nan nan nan nan nan 14 14 14 15 15 16 15 14 13 14 13 13 12 12 11 12 12 12 12 13 15 20 19
11 10 8 6 6 6 7 9 6 6 6 10 8 8 8 6 5 5 3 4 5 6 6 6 5 4 4 5 6 6 7 8 7 7 9 7 8 10 10 10 11 13 14 15 15 17 17 17 18 18 17 17 18 17 15 nan nan 10 12 nan nan nan nan 12 12 nan 17 16 16 15 14 15 14 13 12 12 12 13 13 12 12 13 13 16 20
12 12 10 8 6 5 7 8 7 7 7 9 8 8 7 8 8 4 4 4 4 6 5 6 5 4 3 4 5 5 6 7 7 7 8 9 8 10 10 10 11 12 13 14 15 16 15 15 16 14 15 16 18 16 nan nan nan nan nan nan nan nan 10 nan nan nan nan 16 16 15 16 17 15 14 14 14 14 14 14 14 13 13 14 13 15
12 11 10 9 8 7 8 10 9 8 7 9 9 9 9 8 5 5 6 5 3 5 6 5 6 4 2 3 3 4 5 6 7 7 8 9 8 9 9 10 11 12 12 12 13 14 14 13 13 12 15 18 19 17 nan nan nan nan nan nan nan nan 10 nan nan nan nan nan nan 14 16 16 15 16 15 14 14 15 15 15 14 14 13 14 14
13 12 12 11 9 9 10 11 10 9 9 11 12 10 12 10 7 7 5 7 7 7 6 7 6 3 1 2 3 4 5 6 7 8 9 9 8 8 9 9 10 10 10 11 12 13 12 13 12 12 15 16 18 17 nan 15 nan nan 15 nan nan nan nan nan nan nan nan nan nan nan 13 13 15 15 14 12 13 14 14 14 14 14 14 15 15
13 13 12 10 10 10 11 12 11 11 11 12 12 12 10 9 8 7 6 5 6 7 8 8 8 5 0 2 2 3 5 6 7 8 8 8 8 7 7 7 9 9 10 11 13 13 12 13 12 13 13 15 17 17 17 nan 16 nan nan nan nan nan nan nan nan nan nan nan nan nan nan nan 12 11 10 11 12 12 13 13 13 13 14 14 15
12 12 12 11 10 10 10 12 12 12 12 12 12 12 11 8 7 7 7 8 8 7 9 9 8 7 2 1 2 3 5 6 7 8 8 8 7 6 6 6 7 8 9 10 12 13 12 12 11 10 13 14 16 nan 15 15 16 18 17 14 nan nan nan nan nan nan 12 nan nan nan nan nan nan nan 10 11 12 14 13 13 13 13 14 14 13
11 12 12 11 12 13 12 15 15 14 12 12 11 10 8 7 5 5 4 8 6 5 3 4 6 5 1 2 1 3 5 6 7 8 8 7 7 6 6 5 6 6 7 9 11 11 11 12 12 11 14 14 14 nan nan 12 15 15 15 16 nan nan nan nan nan nan 13 nan nan nan nan nan nan nan nan nan nan 12 13 13 13 14 13 12 12
11 13 13 13 13 13 11 14 14 14 13 11 10 10 9 8 5 5 5 5 4 4 3 4 4 5 4 1 0 2 4 6 7 8 8 8 8 7 6 5 6 6 6 7 8 10 11 11 10 10 13 12 11 nan nan nan 9 11 14 13 14 16 16 nan nan nan nan nan nan nan nan nan nan nan nan nan nan nan nan 11 11 12 11 11 11
12 13 13 14 14 14 12 13 15 13 12 11 9 9 9 9 8 8 7 5 5 3 2 4 4 5 5 2 1 1 3 5 6 7 8 9 8 9 7 6 6 6 6 7 9 8 8 9 9 11 12 11 12 14 nan nan nan nan nan 11 12 14 nan 14 nan nan nan nan nan nan nan nan nan nan nan nan nan nan nan 8 nan nan 12 12 nan
11 11 12 14 15 15 14 13 13 12 10 9 9 9 10 9 9 9 7 5 6 6 5 6 6 5 3 5 1 1 2 4 5 6 7 8 9 9 9 8 8 7 7 7 7 7 8 9 9 10 11 11 10 11 nan nan nan nan nan nan nan nan nan 11 13 nan nan nan nan nan nan nan nan nan nan nan nan nan nan nan nan nan 11 nan nan
10 11 13 15 16 16 15 12 12 11 10 8 9 9 10 10 9 7 5 4 6 8 7 6 6 6 2 2 1 1 1 2 4 4 6 8 8 9 9 10 10 10 9 9 8 8 8 9 9 9 9 10 9 9 11 nan nan nan nan nan nan 9 nan nan nan nan nan nan nan nan nan nan nan nan nan nan nan nan nan nan 9 nan nan nan nan
12 13 12 14 16 16 15 12 11 11 10 8 9 9 9 9 8 6 5 3 4 6 7 6 5 6 2 2 1 2 2 2 3 3 5 7 7 9 10 10 10 11 11 10 10 10 9 9 9 8 8 9 8 8 8 10 8 9 10 nan nan nan nan nan nan nan nan nan nan nan nan nan nan nan nan nan nan nan nan nan nan nan nan nan nan
Wind_Direction
90 97 114 89 89 26 352 329 307 298 286 274 264 258 255 255 257 260 261 261 258 258 259 261 262 263 265 268 273 276 279 281 281 278 277 275 265 257 257 264 266 265 267 264 265 259 251 246 246 246 247 243 240 237 236 238 242 249 252 254 263 267 266 267 270 282 282 277 279 281 280 275 267 263 263 263 263 259 263 265 262 255 248 257 262
58 89 107 105 86 29 18 334 318 305 290 273 267 259 258 261 267 273 270 266 263 264 264 263 261 263 266 271 275 278 280 281 281 281 279 276 269 264 264 262 263 268 268 265 261 256 248 246 244 243 245 246 244 244 244 247 249 252 256 260 267 274 279 288 295 295 288 283 276 275 273 272 265 254 249 248 250 258 258 260 261 251 245 258 255
61 76 94 100 83 42 10 342 325 309 291 282 274 269 272 277 284 282 276 270 270 268 267 265 265 268 270 273 276 278 280 284 284 280 277 274 271 266 262 260 265 272 273 264 251 246 247 249 248 246 248 255 254 251 252 256 260 261 264 269 275 283 289 292 280 271 271 270 277 270 268 269 260 251 248 249 252 255 261 261 260 259 263 278 261
47 69 82 75 73 82 19 347 328 316 301 295 287 285 289 295 291 283 279 276 274 271 270 271 272 271 272 275 275 277 279 281 278 272 269 267 265 260 259 263 272 282 275 280 278 263 261 260 263 264 266 265 266 265 262 262 267 270 271 276 284 290 291 287 281 280 276 284 281 266 188 167 231 255 259 267 266 262 268 267 264 260 267 264 279
45 60 77 99 102 81 10 342 331 320 311 304 299 300 302 299 292 287 284 281 275 274 273 272 272 274 271 272 277 277 276 272 271 269 270 273 272 274 272 278 288 296 298 306 309 303 299 302 302 300 285 280 280 279 277 273 274 276 277 286 290 295 301 300 289 291 294 292 294 307 43 180 177 253 260 268 280 279 263 253 250 247 248 279 282
50 63 78 103 99 77 18 345 334 325 316 311 309 309 306 301 297 293 285 280 277 276 275 274 274 271 272 273 275 275 273 274 276 280 278 282 290 296 299 296 296 298 304 314 319 320 327 331 339 335 316 303 295 287 289 292 287 286 292 295 297 300 302 302 292 288 289 285 283 6 344 171 154 215 274 275 272 266 264 272 260 239 248 253 259
31 72 82 95 99 73 28 345 334 328 322 319 316 313 309 307 302 294 287 282 281 279 278 277 275 270 268 268 268 271 271 278 284 287 291 294 296 295 298 299 305 313 319 319 323 331 339 351 360 354 339 316 303 303 299 305 303 302 305 304 302 303 308 307 301 293 285 275 60 36 34 108 113 100 282 282 274 263 268 271 269 259 242 233 239
46 67 83 86 90 58 29 343 338 332 326 324 318 317 314 314 305 295 290 287 284 283 281 278 272 268 264 263 263 264 275 286 293 292 294 297 303 313 318 327 336 335 337 337 333 343 352 357 5 3 348 330 327 330 334 330 326 319 316 314 318 315 321 322 310 294 283 73 70 32 35 72 84 79 298 285 261 247 243 230 216 239 246 243 239
37 56 77 84 73 18 20 343 341 335 328 326 322 322 321 316 305 299 295 291 286 283 281 276 271 264 257 258 265 271 279 283 286 290 291 302 313 329 340 343 347 353 358 348 346 351 0 3 5 5 351 339 338 349 351 349 346 339 329 323 314 308 319 320 311 274 137 101 91 65 53 60 74 76 323 288 265 228 231 233 229 238 233 240 244
31 44 66 88 63 17 9 344 343 336 331 327 328 326 323 314 307 305 300 295 290 285 279 272 265 253 246 247 253 259 263 264 267 269 278 285 304 305 331 358 2 8 359 1 23 6 359 8 19 11 350 344 351 3 4 2 0 358 346 324 322 328 326 313 297 289 100 111 105 77 65 36 92 87 39 6 17 310 323 289 121 171 183 257 267
8 42 53 48 36 29 3 342 342 338 332 331 332 328 322 318 317 315 307 302 295 283 274 267 257 249 249 248 250 252 249 251 253 266 285 301 311 337 1 5 1 12 17 24 44 41 43 50 53 53 37 18 23 31 27 19 22 15 357 321 308 326 326 300 292 92 105 111 117 113 30 289 99 98 7 359 336 274 261 260 256 256 245 257 273
1 16 34 52 9 21 356 344 342 337 335 336 332 329 325 329 330 326 319 312 300 283 273 268 258 252 249 244 239 240 238 237 244 257 272 297 308 333 9 21 34 43 58 61 58 64 63 69 72 69 65 55 46 46 47 42 37 37 33 14 340 307 316 295 39 83 109 119 128 142 137 112 105 76 303 332 299 284 269 269 262 255 259 261 276
340 353 4 26 27 6 347 343 342 339 340 340 336 331 333 340 341 339 334 326 307 296 283 271 255 243 233 228 229 232 240 242 254 285 325 335 346 7 25 43 61 74 74 85 89 92 88 81 78 72 65 58 56 56 56 55 47 43 44 41 16 342 322 321 48 60 92 119 131 143 139 121 108 291 286 291 296 285 265 255 259 267 283 283 290
340 337 347 6 41 356 342 341 341 342 345 344 339 337 341 349 351 355 349 341 344 354 16 222 228 224 225 217 204 209 224 215 203 68 54 44 56 68 71 79 79 86 94 94 92 86 80 76 73 72 66 61 57 54 55 58 53 45 46 45 17 345 329 349 41 81 93 103 113 115 111 112 95 303 282 282 278 278 271 262 262 269 280 292 297
318 321 338 5 21 17 343 341 343 345 348 348 342 342 348 355 360 3 3 9 31 55 72 96 127 192 199 177 148 137 130 114 107 106 105 111 108 103 100 90 81 76 78 75 71 67 65 63 61 61 61 58 57 56 53 54 52 47 54 71 60 31 4 92 78 85 90 90 94 91 89 84 349 316 298 287 276 269 272 275 283 293 295 293 299
318 323 333 358 26 29 14 348 343 347 352 351 348 347 353 2 9 11 17 40 52 65 77 87 96 110 118 117 108 102 90 90 97 95 104 114 115 105 97 84 70 65 61 61 58 58 56 57 59 56 55 54 54 55 55 54 54 51 54 59 64 40 31 85 88 87 93 93 84 86 82 79 2 320 294 289 283 276 273 281 292 304 300 298 302
318 321 333 356 13 20 22 19 360 349 355 355 355 351 357 6 17 23 29 51 58 73 77 81 86 91 91 97 102 99 92 91 100 106 107 106 104 93 77 68 59 52 51 52 54 53 54 52 52 53 51 53 53 53 55 57 57 51 54 56 53 42 42 94 112 112 110 100 98 93 85 85 31 332 311 304 300 293 284 281 286 294 302 303 306
320 325 337 358 16 20 16 26 11 32 43 12 3 357 3 12 23 28 39 52 63 71 76 79 86 87 89 92 96 100 103 104 103 101 100 99 95 84 66 56 49 42 42 46 50 51 51 51 51 51 52 52 54 57 60 60 60 47 55 57 59 44 37 58 93 95 95 96 115 100 95 15 339 327 319 319 320 312 304 303 305 303 300 305 302
318 332 341 352 13 14 12 30 36 50 55 83 83 31 9 20 30 39 49 60 67 72 75 84 85 86 87 89 96 100 103 100 98 96 94 92 88 82 66 55 48 43 43 44 47 49 50 51 49 48 48 52 53 59 64 65 60 49 49 54 61 50 38 61 75 75 77 77 89 99 73 336 328 312 311 314 317 315 312 316 317 310 308 310 317
325 334 344 1 5 16 25 35 42 48 70 82 83 75 35 29 41 49 58 68 72 76 75 83 85 89 92 95 97 106 103 101 89 94 85 79 74 76 65 58 52 49 45 44 44 45 48 47 49 46 45 47 51 55 61 65 60 41 45 45 48 55 68 70 65 70 64 58 59 52 29 347 329 318 310 308 309 310 311 312 317 320 317 319 323
330 341 354 6 3 10 15 40 48 45 59 76 89 87 68 43 64 60 63 72 79 80 83 83 91 96 102 99 100 105 105 104 102 100 86 90 72 61 60 62 59 55 52 44 42 43 46 50 50 51 49 49 49 53 65 72 71 62 45 45 48 62 74 64 60 67 71 67 57 51 25 11 352 342 323 312 306 305 303 304 311 318 322 324 325
341 351 2 358 5 25 23 34 51 47 64 87 96 95 91 78 103 101 102 96 93 93 103 109 105 111 97 102 105 106 105 100 99 88 97 90 82 66 62 61 60 57 53 49 44 44 47 54 51 58 61 60 62 60 66 74 74 65 54 51 58 71 67 67 65 61 72 66 60 51 32 20 13 3 347 329 315 304 302 305 309 315 319 322 323
332 352 6 6 11 37 41 41 43 61 56 81 94 99 99 109 105 105 105 99 102 107 110 108 111 107 108 105 107 109 106 99 99 90 90 74 81 70 63 58 54 51 52 52 49 47 45 45 51 53 65 69 69 71 66 68 73 69 60 58 56 62 61 67 68 59 62 63 64 45 37 30 26 17 10 357 334 323 313 312 317 317 323 324 323
328 354 354 13 10 49 43 48 50 65 67 94 105 105 108 109 108 108 109 110 113 110 107 108 106 103 104 105 107 106 101 92 77 68 69 80 76 65 61 57 54 50 49 54 53 56 53 51 50 50 56 60 66 74 70 71 73 67 63 63 58 56 58 64 63 59 54 52 55 33 37 37 33 26 22 19 7 356 339 336 334 332 329 332 330
328 328 353 4 15 45 51 56 69 75 82 99 107 106 109 112 109 111 110 113 113 108 104 103 104 99 106 107 102 101 97 90 92 85 78 71 74 75 75 72 64 59 49 61 55 59 53 66 64 48 50 51 60 71 72 72 71 66 54 57 59 54 54 61 54 55 52 50 48 26 28 37 39 33 28 26 21 14 6 1 354 347 344 343 340
320 336 359 349 18 50 46 66 81 78 86 103 108 106 107 112 108 110 110 114 105 102 101 102 101 97 100 97 97 99 96 91 89 83 69 62 61 62 62 65 65 60 55 58 58 47 52 55 65 56 59 60 56 59 65 65 71 71 57 48 52 53 52 58 51 51 51 48 46 25 24 30 36 37 32 30 25 21 17 15 9 6 3 360 355
317 323 323 1 30 52 51 59 92 82 88 111 121 114 114 113 110 110 108 110 99 99 103 100 97 95 90 90 87 87 82 83 82 74 58 59 59 57 53 54 55 48 53 49 49 47 44 51 65 57 52 56 60 57 62 65 67 67 61 50 41 48 47 50 48 44 46 44 40 22 26 25 30 34 33 30 29 27 23 23 20 18 15 13 10
297 321 326 7 60 29 45 58 95 84 101 113 117 117 117 113 105 106 101 99 93 97 97 94 95 89 87 86 86 77 73 77 76 59 53 57 58 50 44 43 44 43 43 44 47 42 44 49 56 64 56 58 57 57 58 66 67 68 73 49 25 36 40 40 41 39 42 43 40 24 23 25 26 32 33 31 28 26 26 26 25 22 18 19 19
295 312 324 346 33 37 7 58 92 78 100 116 119 121 115 117 105 103 96 90 90 94 84 88 89 90 86 86 83 74 67 64 75 57 45 50 51 47 41 38 39 30 29 38 44 47 46 51 55 54 47 51 58 65 72 68 75 81 84 68 25 30 34 36 38 34 34 42 44 31 20 23 25 28 31 32 28 26 27 27 25 23 21 21 22
299 292 310 320 44 38 352 54 83 87 99 121 131 125 116 121 106 101 95 91 89 96 81 86 84 81 82 78 74 70 65 63 65 56 37 44 47 46 40 38 35 30 26 37 44 40 48 52 53 60 45 55 68 83 62 74 79 74 78 69 56 21 29 31 32 34 27 33 41 38 23 23 24 27 29 31 29 27 27 28 25 24 24 25 24
296 305 292 286 96 351 350 60 96 102 116 134 136 128 116 123 110 107 104 97 104 96 88 85 82 78 76 70 68 68 66 64 60 51 46 43 44 41 40 41 36 36 34 40 43 46 53 55 56 56 51 46 52 61 61 61 67 71 66 62 46 7 25 24 27 28 22 24 32 40 33 22 23 24 28 30 30 30 28 28 27 24 25 28 28
296 302 250 255 169 347 336 49 88 107 125 134 144 136 118 122 116 116 104 106 105 103 91 87 83 80 77 68 65 66 65 63 54 47 43 43 43 41 42 43 43 38 40 39 41 38 45 51 50 44 41 47 62 69 60 67 66 66 64 62 69 nan 8 21 19 21 17 17 21 27 32 33 21 20 24 27 28 27 27 27 27 26 26 27 27
258 291 248 276 280 326 285 201 119 127 121 133 143 139 126 126 121 117 112 111 109 99 92 90 83 79 77 66 60 56 57 55 53 43 41 44 45 46 45 47 45 38 36 34 35 43 49 50 48 39 41 47 59 70 69 53 62 68 61 58 62 14 9 11 20 13 12 15 16 15 22 29 30 18 21 24 24 26 27 27 26 27 28 29 26
279 248 268 269 220 169 184 185 146 126 113 142 156 140 133 131 129 131 123 113 113 93 85 93 87 75 75 74 69 64 62 58 51 49 43 43 44 47 50 50 44 38 34 32 36 42 45 44 43 40 48 51 60 65 65 62 61 57 64 61 54 22 0 6 21 17 17 15 14 16 14 17 21 25 27 20 20 22 25 27 27 27 29 31 28
278 263 299 267 233 205 186 184 153 132 114 152 156 146 140 139 136 137 126 121 101 101 94 87 92 82 74 76 74 71 63 60 56 44 44 46 46 47 52 47 44 37 34 36 40 46 45 44 48 44 63 61 64 65 64 58 57 56 58 66 nan 50 10 3 19 22 23 21 15 20 15 10 14 21 25 21 22 19 21 25 27 25 27 29 29
300 270 273 280 256 207 223 204 233 133 120 162 162 156 146 149 144 141 133 130 100 99 106 82 89 86 83 75 73 72 65 61 61 51 44 49 51 49 46 46 45 39 40 47 52 53 64 66 64 67 71 70 60 63 62 63 59 59 58 57 66 51 6 15 20 18 20 25 24 23 21 11 13 20 18 21 24 23 19 20 24 22 22 24 26
280 260 273 274 265 223 239 230 271 179 135 168 172 167 159 156 146 143 127 128 104 95 103 88 85 79 84 75 68 67 68 66 61 61 49 49 53 53 52 52 54 53 61 64 66 63 66 70 71 68 67 71 69 65 66 66 62 58 nan nan 54 nan 14 28 25 16 16 19 21 24 26 20 18 15 18 22 22 27 28 23 22 24 22 23 25
264 255 267 252 262 234 222 222 216 189 169 175 181 176 163 161 156 156 138 106 112 101 100 104 76 78 75 70 61 63 68 68 60 61 57 51 53 56 60 56 64 71 73 70 64 66 70 70 69 73 71 68 70 64 51 60 64 60 nan nan nan nan nan 33 30 32 26 23 26 28 35 34 32 21 18 24 25 31 37 32 24 28 27 26 27
240 247 251 222 232 227 215 223 222 196 175 185 191 187 178 167 167 171 129 106 114 110 104 115 89 65 67 51 49 54 61 63 59 58 62 56 58 60 59 63 68 72 74 71 67 64 64 69 68 70 71 65 62 59 nan 46 nan nan nan nan nan nan 49 35 35 33 38 33 34 34 35 40 39 32 28 28 31 32 40 47 42 39 34 31 30
248 237 249 233 222 232 215 219 217 202 191 189 196 194 184 171 168 173 173 115 106 118 109 114 102 79 60 42 45 46 54 53 59 58 63 71 61 60 58 63 68 69 72 72 71 64 60 61 64 62 67 71 68 66 54 nan nan 53 52 nan nan nan nan 43 45 nan 38 38 40 41 41 46 46 43 34 35 35 38 43 48 48 46 45 39 32
259 240 243 237 216 228 229 230 222 208 197 193 195 198 190 180 177 159 163 124 110 121 133 109 117 106 43 34 33 42 44 50 56 56 61 72 63 62 58 61 65 68 66 67 60 60 57 55 54 54 56 60 62 54 nan nan nan nan nan nan nan nan 57 nan nan nan nan 39 35 39 44 47 51 49 46 44 40 40 43 48 50 51 49 50 45
272 249 242 238 215 207 215 222 215 206 199 197 202 200 192 182 179 168 171 160 143 126 136 125 118 146 19 27 32 33 38 46 51 56 60 65 63 60 59 57 63 69 69 62 55 57 55 54 54 52 54 50 53 46 nan nan nan nan nan nan nan nan 63 nan nan nan nan nan nan 29 41 45 47 50 51 48 45 42 42 43 46 47 48 46 52
283 268 247 241 223 202 203 213 212 209 204 203 206 206 197 190 185 176 181 174 171 160 154 153 144 181 64 9 20 27 31 48 46 53 53 66 65 55 56 56 60 69 69 62 60 58 55 58 54 38 50 53 47 41 nan 29 nan nan 33 nan nan nan nan nan nan nan nan nan nan nan 36 44 44 51 54 52 44 40 40 38 38 42 44 45 48
280 268 261 264 234 205 202 213 214 214 211 208 209 208 208 197 189 184 189 196 179 173 166 156 157 190 31 10 26 19 25 37 44 47 57 64 67 66 59 52 56 60 54 54 61 60 60 62 51 39 38 50 45 43 30 nan 28 nan nan nan nan nan nan nan nan nan nan nan nan nan nan nan 47 52 51 43 40 38 36 33 33 37 42 49 50
284 275 266 265 239 228 210 214 217 217 213 218 217 212 214 210 196 188 192 210 201 187 178 156 147 179 180 76 35 17 19 32 40 43 50 57 66 69 58 54 53 54 52 52 56 58 57 56 49 37 38 38 48 nan 40 25 24 27 22 29 nan nan nan nan nan nan 64 nan nan nan nan nan nan nan 32 29 29 28 29 33 38 39 39 45 50
284 273 263 264 261 239 219 213 211 213 217 224 225 215 215 225 221 209 197 204 213 196 167 130 128 152 129 146 18 17 17 29 38 40 44 52 54 56 56 48 42 44 45 53 59 61 58 58 56 36 38 41 35 nan nan 33 18 27 25 28 nan nan nan nan nan nan 52 nan nan nan nan nan nan nan nan nan nan 19 28 31 41 46 42 37 39
279 266 257 260 270 256 239 224 216 211 217 224 231 216 212 215 229 220 218 208 221 182 176 163 141 150 194 179 66 44 23 21 38 40 41 44 43 48 48 41 34 37 41 42 52 55 53 57 57 40 43 37 29 nan nan nan 32 37 37 34 36 33 27 nan nan nan nan nan nan nan nan nan nan nan nan nan nan nan nan 34 33 39 43 38 27
281 271 263 261 273 269 257 241 223 218 214 223 230 226 222 220 224 218 217 202 205 198 201 188 185 171 189 207 189 70 32 32 37 45 42 41 37 39 38 25 20 28 26 31 36 40 43 56 53 43 44 35 23 21 nan nan nan nan nan 46 43 41 nan 30 nan nan nan nan nan nan nan nan nan nan nan nan nan nan nan 44 nan nan 24 27 nan
279 279 269 265 269 268 266 252 240 231 223 236 235 233 226 229 231 224 217 196 204 206 207 209 213 205 182 191 150 73 43 35 41 46 49 43 39 35 30 17 9 8 13 21 27 23 25 27 41 41 40 39 22 24 nan nan nan nan nan nan nan nan nan 33 25 nan nan nan nan nan nan nan nan nan nan nan nan nan nan nan nan nan 7 nan nan
277 270 267 261 268 267 272 271 253 239 232 244 246 245 243 237 238 237 241 214 207 212 220 226 223 219 243 187 174 87 43 37 44 52 47 43 36 32 28 18 12 6 7 8 10 15 13 14 21 32 30 30 28 14 13 nan nan nan nan nan nan 47 nan nan nan nan nan nan nan nan nan nan nan nan nan nan nan nan nan nan 13 nan nan nan nan
267 272 268 268 271 274 276 278 269 246 243 255 258 264 259 251 250 260 264 250 238 227 236 235 239 228 259 338 342 23 3 20 31 54 42 34 29 25 24 22 17 13 9 4 6 6 3 5 9 10 13 15 23 22 16 19 16 14 16 nan nan nan nan nan nan nan nan nan nan nan nan nan nan nan nan nan nan nan nan nan nan nan nan nan nan